User: anonymous   Login
Location: Fort Wayne
(41.1310°N, 85.1290°W)
Time: 08:00:56
(UTC-05:00)
Language:

Cosmos 2219 Rocket - Orbit

View from above orbital plane
View from above orbital plane
View from above satellite
View from above satellite

Ground track
Ground track

The orbit data is extracted from the following two-line orbital elements,

1 22220U 92076B   16041.09621904 -.00000107  00000-0 -29823-4 0  9993
2 22220  71.0011  17.1535 0014997 299.0639 110.4018 14.16391474200951
Epoch (UTC): 10 February 2016 02:18:33
Eccentricity: 0.0014997
inclination: 71.0011°
perigee height: 827 km
apogee height: 848 km
right ascension of ascending node: 17.1535°
argument of perigee: 299.0639°
revolutions per day: 14.16391474
mean anomaly at epoch: 110.4018°
orbit number at epoch: 20095

The dashed part of the orbit path shows where the satellite is in the earth's shadow,  

DLR